This demonstration page uses our WeatherBlox Daily Observations layout. Learn more.

Hourly Observations for August 8, 2017

Temp ( °F °C ) Dew Point ( °F °C ) Humidity (%) Winds ( mph kmh ) Pressure ( in mb ) Visibility ( mi km ) Precip ( " mm )
12:15 am 00:15 Clear 59 14.9 56 13.6 92 92 ESE 5 7 30.18 1022 10 16.09344 0 0
12:35 am 00:35 Clear 59 14.8 56 13.6 93 93 E 6 9 30.18 1022 7 11.265408 0 0
12:55 am 00:55 Clear 58 14.4 56 13.2 93 93 ESE 6 9 30.21 1023 7 11.265408 0 0
1:15 am 01:15 Clear 58 14.5 56 13.5 94 94 ESE 5 7 30.21 1023 7 11.265408 0 0
1:35 am 01:35 Clear 59 14.8 56 13.6 93 93 ESE 3 6 30.18 1022 7 11.265408 0 0
1:55 am 01:55 Clear 58 14.7 56 13.5 93 93 Calm 30.18 1022 7 11.265408 0 0
2:15 am 02:15 Clear with Mist and Fog 58 14.6 56 13.5 93 93 Calm 30.18 1022 5 8.04672 0 0
2:35 am 02:35 Clear with Mist and Fog 58 14.2 56 13.3 94 94 Calm 30.21 1023 4 6.437376 0 0
2:55 am 02:55 Clear 57 13.7 55 13 96 96 E 3 6 30.21 1023 7 11.265408 0 0
3:15 am 03:15 Clear with Mist and Fog 57 14 56 13.1 94 94 Calm 30.21 1023 5 8.04672 0 0
3:35 am 03:35 Clear with Mist and Fog 57 13.7 55 13 96 96 Calm 30.21 1023 3 4.828032 0 0
3:55 am 03:55 Clear with Mist and Fog 57 13.7 55 13 96 96 Calm 30.21 1023 2.5 4.02336 0 0
4:15 am 04:15 Clear with Mist and Fog 57 13.7 55 13 96 96 Calm 30.21 1023 2 3.218688 0 0
4:35 am 04:35 Clear with Mist and Fog 56 13.5 55 12.9 96 96 Calm 30.21 1023 2 3.218688 0 0
4:55 am 04:55 Mostly Cloudy with Mist and Fog 56 13.6 55 13 96 96 Calm 30.21 1023 1.5 2.414016 0 0
5:15 am 05:15 Clear with Mist and Fog 56 13.4 55 12.8 96 96 Calm 30.21 1023 2.5 4.02336 0 0
5:35 am 05:35 Mostly Cloudy with Fog 55 12.9 54 12.3 96 96 Calm 30.18 1022 0.5 0.804672 0 0
5:55 am 05:55 Mostly Cloudy with Mist and Fog 55 12.9 54 12.2 96 96 Calm 30.21 1023 0.75 1.207008 0 0
6:15 am 06:15 Clear with Mist and Fog 54 12.2 53 11.6 96 96 Calm 30.21 1023 2 3.218688 0 0
6:35 am 06:35 Cloudy with Fog 53 11.9 53 11.4 97 97 Calm 30.21 1023 0.5 0.804672 0 0
6:55 am 06:55 Cloudy with Fog 54 12 53 11.5 97 97 Calm 30.21 1023 0 0 0 0
7:15 am 07:15 Cloudy with Fog 54 12 53 11.5 97 97 Calm 30.21 1023 0 0 0 0
7:35 am 07:35 Cloudy with Fog 55 12.5 54 12 97 97 Calm 30.21 1023 0.5 0.804672 0 0
7:55 am 07:55 Partly Cloudy with Mist and Fog 57 13.7 56 13.2 97 97 Calm 30.21 1023 2 3.218688 0 0
8:15 am 08:15 Sunny with Mist and Fog 59 14.8 58 14.3 97 97 ESE 3 6 30.18 1022 2 3.218688 0 0
8:35 am 08:35 Sunny with Mist and Fog 60 15.8 60 15.3 97 97 SE 5 7 30.18 1022 5 8.04672 0 0
8:55 am 08:55 Sunny 62 16.4 60 15.8 96 96 SSE 3 6 30.18 1022 7 11.265408 0 0
9:15 am 09:15 Sunny 63 17.1 62 16.5 96 96 SSE 5 7 30.18 1022 10 16.09344 0 0
9:35 am 09:35 Sunny 66 19 61 16.2 84 84 SSE 5 7 30.15 1021 10 16.09344 0 0
9:55 am 09:55 Sunny 68 20 61 16 78 78 SE 8 13 30.15 1021 10 16.09344 0 0
10:15 am 10:15 Sunny 69 20.8 61 16.1 75 75 SSE 6 9 30.15 1021 10 16.09344 0 0
10:35 am 10:35 Sunny 70 21.1 60 15.6 71 71 SE 7 11 30.15 1021 10 16.09344 0 0
10:55 am 10:55 Partly Cloudy 71 21.7 60 15.6 68 68 S 6 9 30.12 1020 10 16.09344 0 0
11:15 am 11:15 Partly Cloudy 72 22.1 59 15.2 65 65 S 7 11 30.12 1020 10 16.09344 0 0
11:35 am 11:35 Mostly Cloudy 73 22.7 59 14.9 62 62 S 6 9 30.12 1020 10 16.09344 0 0
11:55 am 11:55 Mostly Cloudy 73 22.6 60 15.3 64 64 S 10 17 30.12 1020 10 16.09344 0 0
12:15 pm 12:15 Partly Cloudy 74 23.1 59 15.2 61 61 SSE 7 11 30.12 1020 10 16.09344 0 0
12:35 pm 12:35 Partly Cloudy 74 23.3 58 14.6 58 58 S 7 11 30.12 1020 10 16.09344 0 0
12:55 pm 12:55 Partly Cloudy 74 23.6 58 14.6 57 57 SE 7 11 30.09 1019 10 16.09344 0 0
1:15 pm 13:15 Partly Cloudy 74 23.6 57 13.7 54 54 SSE 7 11 30.09 1019 10 16.09344 0 0
1:35 pm 13:35 Partly Cloudy 75 23.7 58 14.2 55 55 SE 5 7 30.09 1019 10 16.09344 0 0
1:55 pm 13:55 Partly Cloudy 75 24.1 58 14.3 54 54 S 7 11 30.09 1019 10 16.09344 0 0
2:15 pm 14:15 Partly Cloudy 75 24.1 57 13.8 53 53 SSE 6 9 30.09 1019 10 16.09344 0 0
2:35 pm 14:35 Mostly Cloudy 75 23.8 57 14 54 54 SSE 7 11 30.06 1018 10 16.09344 0 0
2:55 pm 14:55 Mostly Cloudy 76 24.4 58 14.6 54 54 SE 10 17 30.06 1018 10 16.09344 0 0
3:15 pm 15:15 Partly Cloudy 76 24.5 60 15.4 57 57 ESE 10 17 30.06 1018 10 16.09344 0 0
3:35 pm 15:35 Partly Cloudy 76 24.3 58 14.5 54 54 SE 8 13 30.03 1017 10 16.09344 0 0
3:55 pm 15:55 Partly Cloudy 77 25 58 14.7 53 53 SE 12 19 30 1016 10 16.09344 0 0
4:15 pm 16:15 Cloudy 76 24.2 58 14.5 55 55 SSE 8 13 30.03 1017 10 16.09344 0 0
4:35 pm 16:35 Cloudy 75 24.1 59 14.8 56 56 SE 12 19 30.03 1017 10 16.09344 0 0
4:55 pm 16:55 Cloudy 75 23.7 59 14.9 58 58 SE 10 17 30.03 1017 10 16.09344 0 0
5:15 pm 17:15 Cloudy 75 23.9 59 14.9 57 57 SSE 7 11 30.03 1017 10 16.09344 0 0
5:35 pm 17:35 Cloudy 74 23.6 60 15.5 61 61 SSE 5 7 30.03 1017 10 16.09344 0 0
5:55 pm 17:55 Cloudy 75 23.7 58 14.2 55 55 S 8 13 30.03 1017 10 16.09344 0 0
6:15 pm 18:15 Cloudy 74 23.5 60 15.6 61 61 SSW 7 11 30.03 1017 10 16.09344 0 0
6:35 pm 18:35 Partly Cloudy 73 23 58 14.6 59 59 SSW 6 9 30.03 1017 10 16.09344 0 0
6:55 pm 18:55 Partly Cloudy 73 22.9 59 15 61 61 SSW 6 9 30.03 1017 10 16.09344 0 0
7:15 pm 19:15 Partly Cloudy 73 22.7 59 15.1 62 62 SSW 5 7 30.03 1017 10 16.09344 0 0
7:35 pm 19:35 Partly Cloudy 72 22.4 59 15.1 63 63 S 3 6 30.03 1017 10 16.09344 0 0
7:55 pm 19:55 Mostly Cloudy 72 22.3 59 15 63 63 S 3 6 30.03 1017 10 16.09344 0 0
8:15 pm 20:15 Mostly Cloudy 72 22 60 15.5 67 67 Calm 30 1016 10 16.09344 0 0
8:35 pm 20:35 Cloudy 70 21.3 60 15.6 70 70 SSW 3 6 30.03 1017 10 16.09344 0 0
8:55 pm 20:55 Mostly Cloudy 70 21.1 60 15.7 71 71 Calm 30.03 1017 10 16.09344 0 0
9:15 pm 21:15 Partly Cloudy 69 20.6 61 16 75 75 Calm 30.06 1018 10 16.09344 0 0
9:35 pm 21:35 Mostly Cloudy 69 20.3 61 16.3 78 78 Calm 30.06 1018 10 16.09344 0 0
9:55 pm 21:55 Cloudy 67 19.6 62 16.7 83 83 SSE 3 6 30.06 1018 10 16.09344 0 0
10:15 pm 22:15 Cloudy 68 19.8 62 16.7 82 82 Calm 30.06 1018 10 16.09344 0 0
10:35 pm 22:35 Cloudy 67 19.7 62 16.8 83 83 Calm 30.06 1018 10 16.09344 0 0
10:55 pm 22:55 Mostly Cloudy 68 19.8 62 16.6 82 82 Calm 30.06 1018 10 16.09344 0 0
11:15 pm 23:15 Partly Cloudy 67 19.5 62 16.5 83 83 SSE 5 7 30.06 1018 10 16.09344 0 0
11:35 pm 23:35 Cloudy 67 19.3 62 16.6 84 84 Calm 30.06 1018 10 16.09344 0 0
11:55 pm 23:55 Cloudy 67 19.5 62 16.4 82 82 SSE 5 7 30.06 1018 10 16.09344 0 0

Powered by AerisWeather